Content
SEND FEEDBACK

Daily
Averages
Monthly
Summary
Canada

ST. JOHN'S, NEWFOUNDLAND


Home > North America > Canada > Newfoundland
Elevation: 459 feet     Latitude: 47 37N     Longitude: 052 44W

WEATHER
 
SELECT A DAY
Number of Records: 208,946;   Date Range: 1/1/95 - 12/20/14
 
SHARE

PRINT THIS DATA

[ ← Previous Day ]
WEATHER ALMANAC - AUGUST 28, 2013
[ Next Day → ]
[ °C ]   °F
Weather ElementAverageHighLow
Temperature63.8 °F71.6 °F (1:30 pm)53.6 °F (11:30 pm)
Dewpoint60.8 °F64.4 °F (10:30 am)53.6 °F (11:30 pm)
Humidity90.1 %100 % (1:30 am)72 % (3:30 pm)
Barometer29.97 in30.08 in (11:30 pm)29.93 in (5:30 am)
Wind Speed12.5 mph17.3 mph (3:30 pm)
Wind Gust24.2 mph (11:30 am)
Weather ElementAverage
Visibility14.4 mi
Wind DirectionSSW (214.5 °)

Weather ElementTotal
Precipitation---
Heating Degree Days2.4 (Base 65)
Growing Degree Days12.6 (Base 50)
Averaged from 33 records on August 28, 2013
WEATHER CONDITIONS BREAKOUT
WIND DIRECTION BREAKOUT
WEATHER BY HOUR - AUGUST 28, 2013
[ °C ]   °F
Local TimeTemperatureDewpointHumidityBarometerVisibilityWind DirectionWind SpeedGust SpeedPrecipitationEventsConditions
1:30 AM59.0 °F59.0 °F100 %29.97 in15.0 miSSW (200°)8.1 mphOvercast
1:39 AM59.0 °F59.0 °F100 %29.96 in15.0 miSSW (200°)6.9 mphOvercast
2:30 AM59.0 °F59.0 °F100 %29.95 in15.0 miSW (220°)6.9 mphLight Drizzle
3:00 AM59.0 °F59.0 °F100 %29.95 in15.0 miSSW (200°)4.6 mphOvercast
3:30 AM60.0 °F58.0 °F93 %29.94 in15.0 miSSW (210°)11.5 mphRainLight Drizzle
3:30 AM60.8 °F59.0 °F94 %29.94 in15.0 miSSW (210°)11.5 mphOvercast
4:30 AM60.8 °F59.0 °F94 %29.94 in15.0 miSW (220°)11.5 mphOvercast
5:30 AM60.8 °F59.0 °F94 %29.93 in15.0 miSSW (210°)11.5 mph18.4 mphMostly Cloudy
6:30 AM60.8 °F59.0 °F94 %29.94 in15.0 miSSW (200°)10.4 mphOvercast
6:49 AM60.8 °F59.0 °F94 %29.95 in15.0 miSSW (200°)8.1 mphOvercast
7:30 AM60.8 °F60.8 °F100 %29.95 in15.0 miSSW (210°)5.8 mphOvercast
8:30 AM64.4 °F62.6 °F94 %29.95 in15.0 miSW (230°)10.4 mph18.4 mphOvercast
8:54 AM64.4 °F62.6 °F94 %29.95 in15.0 miSW (230°)9.2 mphMostly Cloudy
9:30 AM66.0 °F64.0 °F89 %29.95 in15.0 miSW (230°)12.7 mphOvercast
9:30 AM66.2 °F62.6 °F88 %29.95 in15.0 miWSW (240°)13.8 mphOvercast
10:30 AM68.0 °F64.4 °F88 %29.95 in15.0 miWSW (240°)15.0 mphMostly Cloudy
11:30 AM66.2 °F62.6 °F88 %29.95 in15.0 miWSW (250°)15.0 mph24.2 mphOvercast
12:30 PM68.0 °F62.6 °F83 %29.95 in15.0 miWSW (250°)15.0 mph20.7 mphOvercast
1:30 PM71.6 °F64.4 °F78 %29.94 in15.0 miWSW (250°)15.0 mph24.2 mphMostly Cloudy
2:30 PM69.8 °F64.4 °F83 %29.95 in15.0 miWest (270°)13.8 mph23.0 mphMostly Cloudy
3:30 PM70.0 °F63.0 °F72 %29.95 in15.0 miWSW (240°)17.3 mphScattered Clouds
3:30 PM69.8 °F62.6 °F78 %29.95 in15.0 miWSW (240°)17.3 mphMostly Cloudy
4:30 PM71.6 °F62.6 °F73 %29.95 in15.0 miWSW (250°)15.0 mph21.9 mphMostly Cloudy
5:30 PM71.6 °F62.6 °F73 %29.96 in15.0 miWSW (250°)12.7 mph23.0 mphMostly Cloudy
6:30 PM69.8 °F62.6 °F78 %29.97 in15.0 miWSW (240°)13.8 mph20.7 mphMostly Cloudy
7:30 PM66.2 °F62.6 °F88 %29.98 in15.0 miWSW (240°)13.8 mph19.6 mphMostly Cloudy
8:30 PM66.2 °F62.6 °F88 %30.00 in15.0 miWSW (240°)16.1 mphOvercast
9:13 PM64.4 °F62.6 °F94 %30.01 in15.0 miWSW (250°)12.7 mph19.6 mphOvercast
9:30 PM64.4 °F62.6 °F94 %30.01 in15.0 miWest (260°)12.7 mphMostly Cloudy
10:07 PM59.0 °F57.2 °F94 %30.04 in10.0 miNNE (20°)17.3 mphRainLight Rain Showers
10:21 PM57.2 °F55.4 °F94 %30.05 in10.0 miNorth (10°)16.1 mphRainLight Rain Showers
10:30 PM55.4 °F55.4 °F100 %30.05 in12.0 miNorth (360°)16.1 mphRainLight Rain Showers
11:30 PM53.6 °F53.6 °F100 %30.08 in8.0 miNorth (10°)16.1 mph24.2 mphRainLight Rain Showers
Hourly data recorded from CYYT, located miles away from St. John's, Newfoundland







STORIES FROM OUR PARTNERS